Tracking 30074 objects as of 13-Jan-2025
HD Live streaming from Space Station
objects crossing your sky now

ELEKTRON 3

Track ELEKTRON 3 now!
10-day predictions
ELEKTRON 3 is classified as:


NORAD ID: 829
Int'l Code: 1964-038A
Perigee: 416.3 km
Apogee: 6,091.0 km
Inclination: 60.8 °
Period: 156.6 minutes
Semi major axis: 9624 km
RCS: 2.8255 m2 (large)
Launch date: July 10, 1964
Source: Commonwealth of Independent States (former USSR) (CIS)
Launch site: TYURATAM MISSILE AND SPACE COMPLEX (TTMTR)
Your satellite tracking list
Your tracking list is empty




NASA's NSSDC Master Catalog

Two Line Element Set (TLE):
1 00829U 64038A   25012.67371310  .00002252  00000-0  62194-3 0  9994
2 00829  60.8048 201.0356 2948019 209.4737 130.2070  9.19449501967523
Source of the keplerian elements: AFSPC